EW7213 Weather Reports


time (UTC)temp
C
wind
direction
speed
KPH
gust
KPH
rain 1hr
cm
rain 24hr
cm
rain mn
cm
humidity
%
barometer
mb
20260503230727 17 211 0.0 0.0 0.00 0.00 0.00 44 1014.7
20260503230227 17 193 0.0 0.0 0.00 0.00 0.00 43 1014.8
20260503225727 17 274 0.0 0.0 0.00 0.00 0.00 43 1015.0
20260503225227 17 229 0.0 0.0 0.00 0.00 0.00 43 1015.1
20260503224727 17 196 0.0 0.0 0.00 0.00 0.00 42 1015.2
20260503224227 17 233 0.0 0.0 0.00 0.00 0.00 42 1015.3
20260503223727 17 227 0.0 0.0 0.00 0.00 0.00 41 1015.4
20260503223230 17 205 0.0 0.0 0.00 0.00 0.00 40 1015.3
20260503223226 17 255 0.0 0.0 0.00 0.00 0.00 41 1015.4
20260503222226 17 181 0.0 0.0 0.00 0.00 0.00 41 1015.2
20260503221725 17 248 0.0 0.0 0.00 0.00 0.00 41 1015.2
20260503221225 17 212 0.0 0.0 0.00 0.00 0.00 42 1015.2
20260503220725 17 211 0.0 0.0 0.00 0.00 0.00 42 1015.2
20260503220225 17 202 0.0 0.0 0.00 0.00 0.00 43 1015.3
20260503215725 17 240 0.0 0.0 0.00 0.00 0.00 43 1015.3
20260503215227 17 246 0.0 0.0 0.00 0.00 0.00 43 1015.3
20260503214725 17 234 0.0 0.0 0.00 0.00 0.00 43 1015.3
20260503214225 17 219 0.0 0.0 0.00 0.00 0.00 43 1015.4
20260503213726 17 223 0.0 0.0 0.00 0.00 0.00 43 1015.4
20260503213225 17 174 0.0 0.0 0.00 0.00 0.00 42 1015.5
20260503212725 17 219 0.0 0.0 0.00 0.00 0.00 43 1015.6
20260503212223 17 234 0.0 0.0 0.00 0.00 0.00 42 1015.5
20260503211726 17 222 0.0 0.0 0.00 0.00 0.00 43 1015.7
20260503211722 17 192 0.0 0.0 0.00 0.00 0.00 42 1015.6
20260503210721 17 214 0.0 0.0 0.00 0.00 0.00 42 1015.9
20260503210222 17 170 0.0 0.0 0.00 0.00 0.00 41 1016.0
20260503205724 17 177 0.0 0.0 0.00 0.00 0.00 41 1016.2
20260503205720 17 274 0.0 0.0 0.00 0.00 0.00 42 1016.2
20260503204719 17 275 0.0 0.0 0.00 0.00 0.00 43 1016.3
20260503204217 17 262 0.0 0.0 0.00 0.00 0.00 42 1016.5
20260503203721 16 218 0.0 0.0 0.00 0.00 0.00 41 1016.8
20260503203717 16 213 0.0 0.0 0.00 0.00 0.00 43 1016.6
20260503203217 17 245 0.0 0.0 0.00 0.00 0.00 42 1016.7
20260503202214 16 188 0.0 0.0 0.00 0.00 0.00 41 1016.9
20260503201716 17 221 0.0 0.0 0.00 0.00 0.00 40 1016.8
20260503201215 17 190 0.0 0.0 0.00 0.00 0.00 41 1016.8
20260503200720 16 188 0.0 0.0 0.00 0.00 0.00 40 1017.2
20260503200716 17 174 0.0 0.0 0.00 0.00 0.00 40 1017.0
20260503195714 16 275 0.0 0.0 0.00 0.00 0.00 39 1017.2
20260503195215 16 284 0.0 0.0 0.00 0.00 0.00 38 1017.4
20260503194715 16 312 0.0 0.0 0.00 0.00 0.00 38 1017.5
20260503194215 16 312 0.0 0.0 0.00 0.00 0.00 37 1017.6
20260503193715 16 204 0.0 0.0 0.00 0.00 0.00 39 1017.5
20260503193214 16 250 0.0 0.0 0.00 0.00 0.00 38 1017.7
20260503192715 16 258 0.0 0.0 0.00 0.00 0.00 37 1017.6
20260503192214 16 262 0.0 0.0 0.00 0.00 0.00 37 1017.7
20260503191720 16 294 0.0 0.0 0.00 0.00 0.00 39 1017.8
20260503191715 16 260 0.0 0.0 0.00 0.00 0.00 38 1017.7
20260503191215 16 205 0.0 0.0 0.00 0.00 0.00 38 1017.8
20260503190214 16 243 0.0 0.0 0.00 0.00 0.00 38 1018.0
20260503185821 15 223 0.0 0.0 0.00 0.00 0.00 37 1018.2
20260503185719 16 186 0.0 0.0 0.00 0.00 0.00 39 1018.1
20260503185715 16 186 0.0 0.0 0.00 0.00 0.00 39 1018.0
20260503184215 15 178 0.0 0.0 0.00 0.00 0.00 39 1018.3
20260503183714 15 173 0.0 0.0 0.00 0.00 0.00 38 1018.3
20260503183215 15 190 0.0 0.0 0.00 0.00 0.00 39 1018.5
20260503182716 15 212 0.0 0.0 0.00 0.00 0.00 40 1018.4
20260503182214 15 198 0.0 0.0 0.00 0.00 0.00 40 1018.3
20260503181715 15 255 0.0 0.0 0.00 0.00 0.00 40 1018.5
20260503181215 15 247 0.0 0.0 0.00 0.00 0.00 38 1018.6
20260503180719 15 180 0.0 0.0 0.00 0.00 0.00 40 1018.8
20260503180715 15 231 0.0 0.0 0.00 0.00 0.00 39 1018.7
20260503175714 15 280 0.0 0.0 0.00 0.00 0.00 38 1018.7
20260503175213 15 251 0.0 0.0 0.00 0.00 0.00 39 1018.9
20260503174712 15 243 0.0 0.0 0.00 0.00 0.00 38 1019.0
20260503174212 15 268 0.0 0.0 0.00 0.00 0.00 40 1019.2
20260503173710 15 232 0.0 0.0 0.00 0.00 0.00 40 1019.2
20260503173216 14 134 0.0 0.0 0.00 0.00 0.00 38 1019.4
20260503173212 14 305 0.0 0.0 0.00 0.00 0.00 39 1019.2
20260503172711 14 251 0.0 0.0 0.00 0.00 0.00 40 1019.4
20260503171709 14 226 0.0 0.0 0.00 0.00 0.00 38 1019.5
20260503171212 15 202 0.0 0.0 0.00 0.00 0.00 38 1019.6
20260503171208 14 155 0.0 0.0 0.00 0.00 0.00 38 1019.6
20260503170208 14 163 0.0 0.0 0.00 0.00 0.00 41 1019.6
20260503160206 13 189 0.0 0.0 0.00 0.00 0.00 40 1020.4
20260503150204 11 341 0.0 0.0 0.00 0.00 0.00 46 1021.1
20260503140202 8 287 0.0 0.0 0.00 0.00 0.00 78 1021.0
20260503131201 6 101 0.0 0.0 0.00 0.00 0.00 90 1021.0
20260503130700 5 101 0.0 0.0 0.00 0.00 0.00 91 1021.0
20260503130158 5 101 0.0 0.0 0.00 0.00 0.00 92 1020.9
20260503110656 0 96 0.0 0.0 0.00 0.00 0.00 93 1020.1
20260503110156 0 96 0.0 0.0 0.00 0.00 0.00 93 1020.0
20260503100150 1 96 0.0 0.0 0.00 0.00 0.00 92 1019.4
20260503090146 2 96 0.0 0.0 0.00 0.00 0.00 92 1019.4
20260503081143 2 96 0.0 0.0 0.00 0.00 0.00 92 1019.3
20260503080648 3 96 0.0 0.0 0.00 0.00 0.00 91 1019.0
20260503080643 2 96 0.0 0.0 0.00 0.00 0.00 92 1019.2
20260503080143 3 96 0.0 0.0 0.00 0.00 0.00 92 1019.1
20260503072642 3 96 0.0 0.0 0.00 0.00 0.00 91 1019.0
20260503072140 3 96 0.0 0.0 0.00 0.00 0.00 91 1019.0
20260503071640 3 96 0.0 0.0 0.00 0.00 0.00 91 1019.1
20260503071138 3 96 0.0 0.0 0.00 0.00 0.00 91 1019.1
20260503070638 3 96 0.0 0.0 0.00 0.00 0.00 91 1019.0
20260503070140 3 96 0.0 0.0 0.00 0.00 0.00 91 1019.0
20260503060139 5 96 0.0 0.0 0.00 0.00 0.00 90 1018.8
20260503054633 5 96 0.0 0.0 0.00 0.00 0.00 90 1018.7
20260503054136 5 96 0.0 0.0 0.00 0.00 0.00 90 1018.6
20260503054132 5 96 0.0 0.0 0.00 0.00 0.00 90 1018.6
20260503053132 5 96 0.0 0.0 0.00 0.00 0.00 90 1018.6
20260503052632 5 96 0.0 0.0 0.00 0.00 0.00 90 1018.6
20260503052132 5 96 0.0 0.0 0.00 0.00 0.00 90 1018.6
20260503051636 5 96 0.0 0.0 0.00 0.00 0.00 90 1018.5
20260503051632 5 96 0.0 0.0 0.00 0.00 0.00 90 1018.6
20260503050636 5 96 0.0 0.0 0.00 0.00 0.00 90 1018.5
20260503050632 5 96 0.0 0.0 0.00 0.00 0.00 90 1018.6
20260503045631 5 96 0.0 0.0 0.00 0.00 0.00 90 1018.4
20260503045131 5 96 0.0 0.0 0.00 0.00 0.00 89 1018.3
20260503044630 5 96 0.0 0.0 0.00 0.00 0.00 89 1018.4
20260503044134 5 96 0.0 0.0 0.00 0.00 0.00 89 1018.4
20260503044130 5 96 0.0 0.0 0.00 0.00 0.00 89 1018.4
20260503043130 5 97 0.0 0.0 0.00 0.00 0.00 89 1018.3
20260503042631 5 97 0.0 0.0 0.00 0.00 0.00 88 1018.2
20260503042130 5 97 0.0 0.0 0.00 0.00 0.00 88 1018.2
20260503041630 5 97 0.0 0.0 0.00 0.00 0.00 88 1018.2
20260503041130 5 97 0.0 0.0 0.00 0.00 0.00 88 1018.2
20260503040629 5 97 0.0 0.0 0.00 0.00 0.00 88 1018.1
20260503040129 6 97 0.0 0.0 0.00 0.00 0.00 87 1018.1
20260503035627 6 97 0.0 0.0 0.00 0.00 0.00 87 1018.1
20260503035128 6 97 0.0 0.0 0.00 0.00 0.00 86 1018.1
20260503034628 6 97 0.0 0.0 0.00 0.00 0.00 86 1018.1
20260503034127 6 97 0.0 0.0 0.00 0.00 0.00 86 1018.0
20260503033629 6 97 0.0 0.0 0.00 0.00 0.00 86 1018.0
20260503033128 6 97 0.0 0.0 0.00 0.00 0.00 85 1018.1
20260503032633 6 97 0.0 0.0 0.00 0.00 0.00 84 1018.1
20260503032629 6 97 0.0 0.0 0.00 0.00 0.00 85 1018.0
20260503032238 7 97 0.0 0.0 0.00 0.00 0.00 83 1018.0
20260503032233 7 97 0.0 0.0 0.00 0.00 0.00 84 1018.1
20260503030629 7 97 0.0 0.0 0.00 0.00 0.00 83 1018.0
20260503030624 7 97 0.0 0.0 0.00 0.00 0.00 83 1018.1
20260503025623 7 97 0.0 0.0 0.00 0.00 0.00 82 1018.0
20260503025125 7 97 0.0 0.0 0.00 0.00 0.00 82 1018.0
20260503024623 7 97 0.0 0.0 0.00 0.00 0.00 82 1017.9
20260503024124 7 97 0.0 0.0 0.00 0.00 0.00 81 1017.9
20260503023622 8 97 0.0 0.0 0.00 0.00 0.00 81 1017.8
20260503023121 8 97 0.0 0.0 0.00 0.00 0.00 80 1017.8
20260503022622 8 97 0.0 0.0 0.00 0.00 0.00 79 1017.8
20260503022125 8 97 0.0 0.0 0.00 0.00 0.00 79 1017.7
20260503022121 8 97 0.0 0.0 0.00 0.00 0.00 79 1017.7
20260503021122 8 97 0.0 0.0 0.00 0.00 0.00 79 1017.6
20260503020625 8 97 0.0 0.0 0.00 0.00 0.00 77 1017.6
20260503020621 8 97 0.0 0.0 0.00 0.00 0.00 78 1017.6
20260503015622 8 97 0.0 0.0 0.00 0.00 0.00 76 1017.6
20260503015121 9 80 0.0 0.0 0.00 0.00 0.00 75 1017.5
20260503014622 9 76 0.0 0.0 0.00 0.00 0.00 73 1017.4
20260503014130 10 28 0.0 0.0 0.00 0.00 0.00 68 1017.3
20260503014126 10 76 0.0 0.0 0.00 0.00 0.00 71 1017.4
20260503013622 10 76 0.0 0.0 0.00 0.00 0.00 69 1017.3
20260503013228 10 28 0.0 0.0 0.00 0.00 0.00 68 1017.3
20260503012122 10 28 0.0 0.0 0.00 0.00 0.00 67 1017.2
20260503011626 11 28 0.0 0.0 0.00 0.00 0.00 64 1016.9
20260503011622 10 28 0.0 0.0 0.00 0.00 0.00 65 1017.1
20260503010621 11 28 0.0 0.0 0.00 0.00 0.00 63 1016.9
20260503010123 11 28 0.0 0.0 0.00 0.00 0.00 62 1016.8
20260503005627 11 12 0.0 0.0 0.00 0.00 0.00 61 1016.7
20260503005623 11 17 0.0 0.0 0.00 0.00 0.00 62 1016.8
20260503005121 11 17 0.0 0.0 0.00 0.00 0.00 61 1016.8
20260503004620 11 22 0.0 0.0 0.00 0.00 0.00 62 1016.7
20260503003619 11 9 0.0 0.0 0.00 0.00 0.00 61 1016.7
20260503003119 11 24 0.0 0.0 0.00 0.00 0.00 60 1016.6
20260503002619 11 13 0.0 0.0 0.00 0.00 0.00 60 1016.5
20260503002119 11 5 0.0 0.0 0.00 0.00 0.00 60 1016.3
20260503001625 12 5 0.0 0.0 0.00 0.00 0.00 58 1016.2
20260503001620 12 40 0.0 0.0 0.00 0.00 0.00 59 1016.3
20260503001119 12 42 0.0 0.0 0.00 0.00 0.00 59 1016.2
20260503000118 12 355 0.0 0.0 0.00 0.00 0.00 57 1016.1
20260502235619 12 351 0.0 0.0 0.00 0.00 0.00 54 1016.0
20260502235615 12 0 0.0 0.0 0.00 0.00 0.00 55 1016.0
20260502235222 12 32 0.0 0.0 0.00 0.00 0.00 53 1015.9
20260502234720 12 330 0.0 0.0 0.00 0.00 0.00 53 1015.9
20260502234220 12 12 0.0 0.0 0.00 0.00 0.00 52 1015.8
20260502233114 12 329 0.0 0.0 0.00 0.00 0.00 52 1015.8
20260502232614 12 355 0.0 0.0 0.00 0.00 0.00 51 1015.9
20260502232113 12 336 0.0 0.0 0.00 0.00 0.00 50 1015.8
20260502231613 13 325 0.0 0.0 0.00 0.00 0.00 49 1015.8
20260502231117 13 9 0.0 0.0 0.00 0.00 0.00 47 1015.8
20260502231113 13 315 0.0 0.0 0.00 0.00 0.00 48 1015.8